Back to catalog

STARLINK-3616

AliveCommunicationsVLEO
NORAD 51782·PAYLOAD·🇺🇸 United States

Launched Feb 25, 2022 from Vandenberg Space Force Base

Loading…

Next Passes (next 24 hours)

TLE

FreshSource: CelesTrak SupGP

Epoch: Sep 14, 2026, 13:07 UTC

1 51782C 22017Q   26257.54701389 -.00052889  00000+0 -15629-2 0  2579
2 51782  53.1584 205.8960 0001312  87.6141  95.4467 15.34410081    18

Track STARLINK-3616 in real time with AllMySat

Download on the App Store